STARLINK-30223 (57603 NORAD) Tracking and Keplerian Element Data

This shows tracking and keplerian element data for the satellite.

Feedback or suggestion? Click here.




ElementValue
Catalog57603
NameSTARLINK-30223
Epoch Orbit2476
Epoch Day13.18346572
Epoch Year2024
RAAN35.3732
Inclination43.0036
Eccentricity7.59E-05
Argument of Perigee244.7638
Mean Anonmoly115.3126
Mean Motion15.02531344
Decay Rate0.00021401
L11 57603U 23119B 24013.18346572 .00021401 00000+0 15947-2 0 9998
L22 57603 43.0036 35.3732 0000759 244.7638 115.3126 15.02531344 24763



Live tracking and technical data element details for STARLINK-30223 (NORAD 57603). STARLINK-30223 can be tracked NOW for your location showing map with azimuth and elevation plus other details from your city location.







IsCatalogInMostPopularTable: catalog: 57603, numindb: 27
Update: records affected: 1



GetName: 57603 STARLINK-30223

Hit Count: updated at: Thu, 22 Feb 2024 00:31:54 GMT